Regional Weather Roundup
Issued by NWS

Home | Current Version | Previous Version | Text Only | Print | Product List | Glossary On
Versions: 1 2 3 4 5 6 7 8 9 10 11 12 13 14 15 16 17 18 19 20 21 22 23 24 25 26 27 28 29 30 31 32 33 34 35 36 37 38 39 40 41 42 43 44 45 46 47 48 49 50
000
ASUS44 KJAN 100610
RWRMS

MISSISSIPPI HOURLY WEATHER ROUNDUP
NATIONAL WEATHER SERVICE JACKSON MS
1200 AM CST SAT DEC 10 2016

NOTE: "FAIR: INDICATES FEW OR NO CLOUDS BELOW 12,000 FEET WITH NO
SIGNIFICANT WEATHER AND/OR OBSTRUCTIONS TO VISIBILITY.

MSZ001>002-007>008-010>013-018>021-025>028-034>036-100700-
NORTHWEST MISSISSIPPI

CITY           SKY/WX    TMP DP  RH WIND       PRES   REMARKS
CLEVELAND      FAIR      29  28  98 N5        30.61S WCI  24
GREENWOOD      CLEAR     25  21  85 CALM      30.60S
6HR MIN TEMP:  25; 6HR MAX TEMP:  30;

GREENVILLE     CLEAR     28  22  78 N5        30.60S WCI  23
6HR MIN TEMP:  28; 6HR MAX TEMP:  33;

OXFORD         FAIR      23  19  86 CALM      30.60F
WINONA         FAIR      25  23  93 CALM      30.58S
$$

MSZ003>006-009-014>017-022>024-029>033-037>039-100700-
NORTHEAST MISSISSIPPI

CITY           SKY/WX    TMP DP  RH WIND       PRES   REMARKS
COLUMBUS AFB   CLEAR     28  22  80 CALM      30.57F
6HR MIN TEMP:  24; 6HR MAX TEMP:  32;

GOLDN TRIANGLE CLEAR     27  18  69 N5        30.54S WCI  21
STARKVILLE     FAIR      27  23  86 CALM      30.59S
TUPELO         CLEAR     23  18  81 N5        30.59S WCI  17
6HR MIN TEMP:  23; 6HR MAX TEMP:  33;

$$

MSZ040-058-100700-
CENTRAL MISSISSIPPI

CITY           SKY/WX    TMP DP  RH WIND       PRES   REMARKS
JACKSON INTL   CLEAR     30  25  81 CALM      30.56F
6HR MIN TEMP:  28; 6HR MAX TEMP:  37;

JACKSON HAWKNS   N/A    N/A N/A N/A MISG        N/A
MADISON        FAIR      28  23  80 CALM      30.56F
MERIDIAN KEY   CLEAR     31  20  63 N6        30.56S WCI  25
6HR MIN TEMP:  29; 6HR MAX TEMP:  35;

MERIDIAN NAS   CLEAR     31  18  58 NW5       30.57S WCI  26
6HR MIN TEMP:  31; 6HR MAX TEMP:  38;

VICKSBURG VKS  CLEAR     28  25  86 CALM      30.58F
$$

MSZ059>079-100700-
SOUTH MISSISSIPPI

CITY           SKY/WX    TMP DP  RH WIND       PRES   REMARKS
BROOKHAVEN     FAIR     N/A N/A N/A N5        30.55S
COLUMBIA       FAIR      27  25  93 CALM      30.57S
HATTIESBURG    CLEAR     29  24  82 CALM      30.55S
6HR MIN TEMP:  29; 6HR MAX TEMP:  42;

LAUREL         FAIR      29  21  71 CALM      30.56R
MCCOMB         CLEAR     34  19  54 N6        30.53S WCI  29
6HR MIN TEMP:  34; 6HR MAX TEMP:  42;

NATCHEZ        CLEAR     28  21  74 N3        30.56S
6HR MIN TEMP:  28; 6HR MAX TEMP:  37;

PINE BELT      CLEAR     30  19  64 N7        30.56R WCI  23
6HR MIN TEMP:  28; 6HR MAX TEMP:  37;

$$

MSZ080>082-100700-
COASTAL MISSISSIPPI

CITY           SKY/WX    TMP DP  RH WIND       PRES   REMARKS
BILOXI         CLEAR     38  22  53 NE10      30.51S WCI  31
6HR MIN TEMP:  38; 6HR MAX TEMP:  44;

PASCAGOULA     CLEAR     35  21  56 N10       30.51F WCI  27
6HR MIN TEMP:  34; 6HR MAX TEMP:  40;

GULFPORT       CLEAR     37  22  54 N8        30.51F WCI  31
6HR MIN TEMP:  37; 6HR MAX TEMP:  45;

$$

LAZ007>009-015>016-023>026-100700-
NORTHEAST LOUISIANA

CITY           SKY/WX    TMP DP  RH WIND       PRES   REMARKS
BASTROP        FAIR      27  26  97 CALM      30.60S
TALLULAH/VBURG CLEAR     31  24  75 NE8       30.59F WCI  23
6HR MIN TEMP:  30; 6HR MAX TEMP:  35;

VIDALIA        FAIR      32  28  84 CALM      30.60F
$$



USA.gov is the U.S. government's official web portal to all federal, state and local government web resources and services.